Погода в Барабинске

Россия / Новосибирская область     55°21′01″N   78°20′30″E
темп.,
°C
ветер,
м/с
пор.,
м/с
влажн.,
%
обл.,
%
осадки,
мм/ч
давл.,
гПа
погр.,
м
4 июля, пн
пн401:00+12ссз11905 0.2 100610
04:00+11вюв11905 0.0 100610
07:00+12вюв23894 0.0 100691
10:00+17вюв33720 0.0 1005519
13:00+20юв4458100 0.0 10041306
16:00+22юв3554100 0.0 10031563
19:00+20в5970100 0.1 1001293
22:00+17в6147496 0.1 1000346
5 июля, вт
вт501:00+18в71463100 0.1 998427
04:00+15вюв51283100 0.4 997337
07:00+14в61292100 2.9 996235
10:00+16вюв61287100 0.1 997404
13:00+17в61085100 0.2 997489
16:00+16в41089100 0.5 997473
19:00+16всв4891100 1.1 997273
22:00+15св71193100 0.3 997362
6 июля, ср
ср601:00+15с41095100 0.6 997257
04:00+14с3697100 0.2 997169
07:00+14с4897100 0.6 999291
10:00+14с3697100 0.4 1000270
13:00+16с479298 0.6 1002582
16:00+21с567780 0.8 1003997
19:00+20ссв468280 3.1 1005843
22:00+17с41092100 1.6 1006252
7 июля, чт
чт701:00+15с4119124 1.6 1007214
04:00+13с37939 0.0 1008125
07:00+14с379185 0.0 1010170
10:00+16ссв3787100 0.0 1011227
13:00+21ссв455918 0.0 1012765
16:00+22ссв55537 0.0 10121457
19:00+22с36620 0.0 10121656
22:00+17с337735 0.1 101240
8 июля, пт
пт801:00+17с3375100 0.1 101263
04:00+15св357096 0.0 1012101
07:00+15ссв3573100 0.0 1012115
10:00+17св477498 0.0 1012294
13:00+21св675860 0.0 1011912
16:00+23всв665396 0.0 10111773
19:00+21ссв366989 0.1 1011479
22:00+17с478051 0.1 1011106